{"data":{"norad_id":67837,"epoch":"2026-05-25T03:32:42.772128Z","epoch_age_seconds":58318,"freshness":"FRESH","line1":"1 67837U 26033S   26145.14771727  .00013111  00000+0  48490-3 0  9993","line2":"2 67837  42.9971 195.5743 0001581 324.2803  35.7942 15.27594149 16369","mean_motion":15.27594149,"eccentricity":0.0001581,"inclination_deg":42.9971,"raan_deg":195.5743,"arg_perigee_deg":324.2803,"mean_anomaly_deg":35.7942,"bstar":0.0004849,"rev_number":1636,"period_min":94.265875588923,"perigee_km":481.92198234701,"apogee_km":484.09147599417,"semimajor_km":6861.1437291706,"source":"CELESTRAK","updated_at":"2026-05-25T13:38:21.700810Z"}}